| time (UTC) | temp C | wind direction | speed KPH | gust KPH | rain 1hr cm | rain 24hr cm | rain mn cm | humidity % | barometer mb |
| 20260505065519 | 9 | 158 | 3.2 | 8.0 | 0.00 | 0.00 | 0.00 | 88 | 1011.0 |
| 20260505065018 | 9 | 152 | 1.6 | 4.8 | 0.00 | 0.00 | 0.00 | 88 | 1011.1 |
| 20260505064537 | 9 | 100 | 1.6 | 6.4 | 0.00 | 0.00 | 0.00 | 87 | 1011.1 |
| 20260505064019 | 9 | 0 | 3.2 | 6.4 | 0.00 | 0.00 | 0.00 | 87 | 1011.2 |
| 20260505063519 | 9 | 231 | 1.6 | 8.0 | 0.00 | 0.00 | 0.00 | 87 | 1011.1 |
| 20260505063032 | 9 | 219 | 1.6 | 11.3 | 0.00 | 0.00 | 0.00 | 87 | 1011.2 |
| 20260505062520 | 9 | 212 | 3.2 | 11.3 | 0.00 | 0.00 | 0.00 | 87 | 1011.2 |
| 20260505062019 | 9 | 136 | 3.2 | 8.0 | 0.00 | 0.00 | 0.00 | 86 | 1011.3 |
| 20260505061558 | 9 | 188 | 1.6 | 8.0 | 0.00 | 0.00 | 0.00 | 86 | 1011.2 |
| 20260505061018 | 9 | 175 | 3.2 | 8.0 | 0.00 | 0.00 | 0.00 | 86 | 1011.2 |
| 20260505060519 | 9 | 226 | 1.6 | 6.4 | 0.00 | 0.00 | 0.00 | 86 | 1011.2 |
| 20260505060045 | 10 | 195 | 1.6 | 9.7 | 0.00 | 0.00 | 0.00 | 86 | 1011.3 |
| 20260505055519 | 10 | 243 | 1.6 | 9.7 | 0.00 | 0.00 | 0.00 | 85 | 1011.2 |
| 20260505055019 | 10 | 235 | 1.6 | 9.7 | 0.00 | 0.00 | 0.00 | 85 | 1011.2 |
| 20260505054546 | 10 | 214 | 3.2 | 8.0 | 0.00 | 0.00 | 0.00 | 85 | 1011.2 |
| 20260505054018 | 10 | 179 | 3.2 | 8.0 | 0.00 | 0.00 | 0.00 | 85 | 1011.1 |
| 20260505053518 | 10 | 191 | 3.2 | 8.0 | 0.00 | 0.00 | 0.00 | 85 | 1011.2 |
| 20260505053035 | 10 | 204 | 3.2 | 8.0 | 0.00 | 0.00 | 0.00 | 85 | 1011.2 |
| 20260505052519 | 10 | 210 | 1.6 | 8.0 | 0.00 | 0.00 | 0.00 | 84 | 1011.1 |
| 20260505052025 | 10 | 165 | 3.2 | 8.0 | 0.00 | 0.00 | 0.00 | 84 | 1011.1 |
| 20260505051532 | 10 | 237 | 3.2 | 11.3 | 0.00 | 0.00 | 0.00 | 84 | 1011.2 |
| 20260505051019 | 10 | 184 | 3.2 | 11.3 | 0.00 | 0.00 | 0.00 | 84 | 1011.2 |
| 20260505050518 | 10 | 208 | 3.2 | 9.7 | 0.00 | 0.00 | 0.00 | 83 | 1011.2 |
| 20260505041537 | 10 | 211 | 4.8 | 11.3 | 0.00 | 0.00 | 0.00 | 82 | 1011.5 |
| 20260505041019 | 10 | 217 | 3.2 | 12.9 | 0.00 | 0.00 | 0.00 | 81 | 1011.4 |
| 20260505040519 | 10 | 179 | 3.2 | 14.5 | 0.00 | 0.00 | 0.00 | 81 | 1011.5 |
| 20260505040051 | 10 | 170 | 4.8 | 14.5 | 0.00 | 0.00 | 0.00 | 81 | 1011.4 |
| 20260505035519 | 10 | 229 | 3.2 | 16.1 | 0.00 | 0.00 | 0.00 | 81 | 1011.4 |
| 20260505035020 | 10 | 195 | 4.8 | 16.1 | 0.00 | 0.00 | 0.00 | 80 | 1011.3 |
| 20260505034540 | 10 | 159 | 4.8 | 11.3 | 0.00 | 0.00 | 0.00 | 80 | 1011.2 |
| 20260505034019 | 10 | 209 | 4.8 | 9.7 | 0.00 | 0.00 | 0.00 | 80 | 1011.2 |
| 20260505033519 | 10 | 221 | 3.2 | 11.3 | 0.00 | 0.00 | 0.00 | 79 | 1011.3 |
| 20260505033038 | 11 | 203 | 4.8 | 11.3 | 0.00 | 0.00 | 0.00 | 79 | 1011.2 |
| 20260505032520 | 11 | 187 | 3.2 | 9.7 | 0.00 | 0.00 | 0.00 | 79 | 1011.1 |
| 20260505032020 | 11 | 153 | 4.8 | 9.7 | 0.00 | 0.00 | 0.00 | 78 | 1011.1 |
| 20260505031547 | 11 | 217 | 3.2 | 9.7 | 0.00 | 0.00 | 0.00 | 78 | 1011.2 |
| 20260505031018 | 11 | 172 | 4.8 | 14.5 | 0.00 | 0.00 | 0.00 | 78 | 1011.3 |
| 20260505030518 | 11 | 198 | 4.8 | 14.5 | 0.00 | 0.00 | 0.00 | 78 | 1011.4 |
| 20260505030041 | 11 | 193 | 3.2 | 14.5 | 0.00 | 0.00 | 0.00 | 77 | 1011.5 |
| 20260505025520 | 11 | 155 | 4.8 | 14.5 | 0.00 | 0.00 | 0.00 | 77 | 1011.4 |
| 20260505025018 | 11 | 172 | 4.8 | 14.5 | 0.00 | 0.00 | 0.00 | 77 | 1011.4 |
| 20260505024537 | 11 | 203 | 1.6 | 11.3 | 0.00 | 0.00 | 0.00 | 76 | 1011.4 |
| 20260505024018 | 11 | 216 | 3.2 | 11.3 | 0.00 | 0.00 | 0.00 | 76 | 1011.4 |
| 20260505023519 | 11 | 231 | 4.8 | 11.3 | 0.00 | 0.00 | 0.00 | 75 | 1011.4 |
| 20260505023035 | 11 | 131 | 4.8 | 11.3 | 0.00 | 0.00 | 0.00 | 75 | 1011.3 |
| 20260505022520 | 11 | 204 | 4.8 | 11.3 | 0.00 | 0.00 | 0.00 | 75 | 1011.3 |
| 20260505022021 | 11 | 202 | 4.8 | 12.9 | 0.00 | 0.00 | 0.00 | 75 | 1011.4 |
| 20260505021538 | 12 | 164 | 4.8 | 14.5 | 0.00 | 0.00 | 0.00 | 74 | 1011.5 |
| 20260505021021 | 12 | 200 | 3.2 | 16.1 | 0.00 | 0.00 | 0.00 | 74 | 1011.5 |
| 20260505020518 | 12 | 224 | 4.8 | 16.1 | 0.00 | 0.00 | 0.00 | 74 | 1011.4 |
| 20260505020042 | 12 | 201 | 4.8 | 17.7 | 0.00 | 0.00 | 0.00 | 74 | 1011.4 |
| 20260505015519 | 12 | 198 | 6.4 | 17.7 | 0.00 | 0.00 | 0.00 | 73 | 1011.4 |
| 20260505015018 | 12 | 222 | 4.8 | 12.9 | 0.00 | 0.00 | 0.00 | 73 | 1011.4 |
| 20260505014542 | 12 | 170 | 4.8 | 16.1 | 0.00 | 0.00 | 0.00 | 73 | 1011.4 |
| 20260505014018 | 12 | 210 | 4.8 | 16.1 | 0.00 | 0.00 | 0.00 | 72 | 1011.3 |
| 20260505013520 | 12 | 179 | 6.4 | 16.1 | 0.00 | 0.00 | 0.00 | 72 | 1011.3 |
| 20260505013037 | 12 | 272 | 4.8 | 12.9 | 0.00 | 0.00 | 0.00 | 72 | 1011.2 |
| 20260505012518 | 12 | 242 | 4.8 | 20.9 | 0.00 | 0.00 | 0.00 | 71 | 1011.2 |
| 20260505012018 | 12 | 203 | 6.4 | 20.9 | 0.00 | 0.00 | 0.00 | 71 | 1011.2 |
| 20260505011538 | 12 | 191 | 8.0 | 22.5 | 0.00 | 0.00 | 0.00 | 70 | 1011.1 |
| 20260505011019 | 13 | 231 | 9.7 | 22.5 | 0.00 | 0.00 | 0.00 | 70 | 1011.0 |
| 20260505010520 | 13 | 165 | 6.4 | 19.3 | 0.00 | 0.00 | 0.00 | 69 | 1010.9 |
| 20260505010041 | 13 | 172 | 6.4 | 22.5 | 0.00 | 0.00 | 0.00 | 69 | 1010.9 |
| 20260505005519 | 13 | 216 | 4.8 | 22.5 | 0.00 | 0.00 | 0.00 | 68 | 1010.9 |
| 20260505005019 | 13 | 207 | 8.0 | 22.5 | 0.00 | 0.00 | 0.00 | 67 | 1010.7 |
| 20260505004538 | 13 | 192 | 6.4 | 22.5 | 0.00 | 0.00 | 0.00 | 67 | 1010.5 |
| 20260505004018 | 13 | 221 | 8.0 | 22.5 | 0.00 | 0.00 | 0.00 | 66 | 1010.3 |
| 20260505003521 | 13 | 183 | 6.4 | 20.9 | 0.00 | 0.00 | 0.00 | 65 | 1010.4 |
| 20260505003037 | 13 | 214 | 9.7 | 20.9 | 0.00 | 0.00 | 0.00 | 65 | 1010.2 |
| 20260505002518 | 13 | 173 | 6.4 | 19.3 | 0.00 | 0.00 | 0.00 | 64 | 1010.1 |
| 20260505002018 | 13 | 247 | 6.4 | 19.3 | 0.00 | 0.00 | 0.00 | 63 | 1010.0 |
| 20260505001539 | 13 | 207 | 6.4 | 25.7 | 0.00 | 0.00 | 0.00 | 62 | 1009.8 |
| 20260505001018 | 13 | 181 | 8.0 | 25.7 | 0.00 | 0.00 | 0.00 | 61 | 1009.8 |
| 20260505000521 | 14 | 201 | 6.4 | 22.5 | 0.00 | 0.00 | 0.00 | 60 | 1009.7 |
| 20260505000048 | 14 | 214 | 8.0 | 22.5 | 0.00 | 0.00 | 0.00 | 60 | 1009.6 |
| 20260504235518 | 14 | 130 | 8.0 | 20.9 | 0.00 | 0.00 | 0.00 | 59 | 1009.6 |
| 20260504235018 | 14 | 188 | 8.0 | 20.9 | 0.00 | 0.00 | 0.00 | 59 | 1009.4 |
| 20260504234536 | 14 | 187 | 8.0 | 20.9 | 0.00 | 0.00 | 0.00 | 59 | 1009.4 |
| 20260504234019 | 14 | 232 | 8.0 | 24.1 | 0.00 | 0.00 | 0.00 | 59 | 1009.4 |
| 20260504233518 | 15 | 222 | 8.0 | 24.1 | 0.00 | 0.00 | 0.00 | 58 | 1009.3 |
| 20260504233035 | 15 | 207 | 9.7 | 22.5 | 0.00 | 0.00 | 0.00 | 58 | 1009.3 |
| 20260504232521 | 15 | 192 | 8.0 | 27.4 | 0.00 | 0.00 | 0.00 | 57 | 1009.2 |
| 20260504232020 | 15 | 214 | 8.0 | 27.4 | 0.00 | 0.00 | 0.00 | 56 | 1009.1 |
| 20260504231538 | 15 | 173 | 6.4 | 22.5 | 0.00 | 0.00 | 0.00 | 56 | 1009.0 |
| 20260504231021 | 15 | 178 | 11.3 | 25.7 | 0.00 | 0.00 | 0.00 | 55 | 1008.9 |
| 20260504230519 | 16 | 162 | 11.3 | 25.7 | 0.00 | 0.00 | 0.00 | 54 | 1008.9 |
| 20260504230040 | 16 | 214 | 9.7 | 22.5 | 0.00 | 0.00 | 0.00 | 53 | 1008.8 |
| 20260504225521 | 16 | 168 | 9.7 | 20.9 | 0.00 | 0.00 | 0.00 | 52 | 1008.7 |
| 20260504225021 | 16 | 233 | 8.0 | 22.5 | 0.00 | 0.00 | 0.00 | 52 | 1008.6 |
| 20260504224538 | 16 | 219 | 6.4 | 22.5 | 0.00 | 0.00 | 0.00 | 52 | 1008.5 |
| 20260504224018 | 16 | 209 | 8.0 | 25.7 | 0.00 | 0.00 | 0.00 | 52 | 1008.5 |
| 20260504223519 | 17 | 192 | 12.9 | 29.0 | 0.00 | 0.00 | 0.00 | 51 | 1008.3 |
| 20260504223037 | 17 | 141 | 12.9 | 29.0 | 0.00 | 0.00 | 0.00 | 50 | 1008.4 |
| 20260504222520 | 17 | 166 | 9.7 | 30.6 | 0.00 | 0.00 | 0.00 | 51 | 1008.2 |
| 20260504222018 | 17 | 136 | 9.7 | 30.6 | 0.00 | 0.00 | 0.00 | 51 | 1008.2 |
| 20260504221542 | 17 | 167 | 14.5 | 30.6 | 0.00 | 0.00 | 0.00 | 50 | 1008.2 |
| 20260504221019 | 17 | 193 | 11.3 | 30.6 | 0.00 | 0.00 | 0.00 | 50 | 1008.2 |
| 20260504220519 | 17 | 223 | 9.7 | 30.6 | 0.00 | 0.00 | 0.00 | 50 | 1008.1 |
| 20260504220048 | 17 | 234 | 8.0 | 35.4 | 0.00 | 0.00 | 0.00 | 51 | 1008.1 |
| 20260504215519 | 17 | 191 | 9.7 | 35.4 | 0.00 | 0.00 | 0.00 | 50 | 1008.1 |
| 20260504215019 | 17 | 217 | 11.3 | 29.0 | 0.00 | 0.00 | 0.00 | 49 | 1008.2 |
| 20260504214538 | 18 | 193 | 12.9 | 29.0 | 0.00 | 0.00 | 0.00 | 49 | 1008.3 |
| 20260504214018 | 18 | 229 | 11.3 | 24.1 | 0.00 | 0.00 | 0.00 | 49 | 1008.1 |
| 20260504213520 | 18 | 182 | 9.7 | 32.2 | 0.00 | 0.00 | 0.00 | 49 | 1008.1 |
| 20260504213053 | 18 | 203 | 14.5 | 32.2 | 0.00 | 0.00 | 0.00 | 48 | 1008.0 |
| 20260504212519 | 18 | 231 | 11.3 | 32.2 | 0.00 | 0.00 | 0.00 | 48 | 1008.1 |
| 20260504212022 | 18 | 209 | 12.9 | 32.2 | 0.00 | 0.00 | 0.00 | 48 | 1008.0 |
| 20260504211541 | 18 | 223 | 9.7 | 25.7 | 0.00 | 0.00 | 0.00 | 47 | 1008.0 |
| 20260504211018 | 18 | 176 | 12.9 | 29.0 | 0.00 | 0.00 | 0.00 | 46 | 1007.9 |
| 20260504210519 | 18 | 250 | 9.7 | 29.0 | 0.00 | 0.00 | 0.00 | 46 | 1007.9 |
| 20260504210038 | 19 | 67 | 11.3 | 25.7 | 0.00 | 0.00 | 0.00 | 44 | 1007.9 |
| 20260504205519 | 19 | 181 | 12.9 | 24.1 | 0.00 | 0.00 | 0.00 | 44 | 1007.9 |
| 20260504205019 | 19 | 76 | 12.9 | 24.1 | 0.00 | 0.00 | 0.00 | 44 | 1007.8 |
| 20260504204539 | 20 | 201 | 9.7 | 29.0 | 0.00 | 0.00 | 0.00 | 43 | 1007.8 |
| 20260504204019 | 20 | 282 | 11.3 | 29.0 | 0.00 | 0.00 | 0.00 | 42 | 1007.8 |
| 20260504203520 | 19 | 208 | 9.7 | 27.4 | 0.00 | 0.00 | 0.00 | 41 | 1007.7 |
| 20260504203035 | 20 | 220 | 12.9 | 32.2 | 0.00 | 0.00 | 0.00 | 41 | 1007.7 |
| 20260504202518 | 20 | 184 | 14.5 | 32.2 | 0.00 | 0.00 | 0.00 | 41 | 1007.7 |
| 20260504202019 | 20 | 86 | 6.4 | 33.8 | 0.00 | 0.00 | 0.00 | 40 | 1007.6 |
| 20260504201539 | 20 | 203 | 11.3 | 33.8 | 0.00 | 0.00 | 0.00 | 41 | 1007.7 |
| 20260504201018 | 20 | 184 | 14.5 | 29.0 | 0.00 | 0.00 | 0.00 | 39 | 1007.7 |
| 20260504200519 | 20 | 184 | 8.0 | 29.0 | 0.00 | 0.00 | 0.00 | 39 | 1007.7 |
| 20260504200038 | 20 | 232 | 14.5 | 29.0 | 0.00 | 0.00 | 0.00 | 39 | 1007.6 |
| 20260504195518 | 20 | 159 | 11.3 | 29.0 | 0.00 | 0.00 | 0.00 | 37 | 1007.6 |
| 20260504195018 | 20 | 201 | 16.1 | 27.4 | 0.00 | 0.00 | 0.00 | 36 | 1007.8 |
| 20260504194538 | 20 | 201 | 9.7 | 24.1 | 0.00 | 0.00 | 0.00 | 36 | 1007.7 |
| 20260504194019 | 21 | 264 | 9.7 | 27.4 | 0.00 | 0.00 | 0.00 | 36 | 1007.8 |
| 20260504193518 | 21 | 251 | 6.4 | 27.4 | 0.00 | 0.00 | 0.00 | 35 | 1007.7 |
| 20260504193053 | 21 | 206 | 6.4 | 22.5 | 0.00 | 0.00 | 0.00 | 35 | 1007.7 |
| 20260504192518 | 21 | 216 | 11.3 | 22.5 | 0.00 | 0.00 | 0.00 | 34 | 1007.6 |
| 20260504192018 | 21 | 221 | 8.0 | 30.6 | 0.00 | 0.00 | 0.00 | 32 | 1007.7 |
| 20260504191536 | 21 | 263 | 9.7 | 30.6 | 0.00 | 0.00 | 0.00 | 33 | 1007.6 |
| 20260504191018 | 21 | 210 | 8.0 | 25.7 | 0.00 | 0.00 | 0.00 | 32 | 1007.7 |
| 20260504190521 | 20 | 125 | 8.0 | 25.7 | 0.00 | 0.00 | 0.00 | 34 | 1007.7 |
| 20260504190040 | 20 | 75 | 14.5 | 30.6 | 0.00 | 0.00 | 0.00 | 32 | 1007.8 |
| 20260504185518 | 21 | 184 | 12.9 | 30.6 | 0.00 | 0.00 | 0.00 | 33 | 1007.8 |
| 20260504185020 | 21 | 252 | 9.7 | 29.0 | 0.00 | 0.00 | 0.00 | 32 | 1007.9 |
| 20260504184535 | 21 | 224 | 12.9 | 30.6 | 0.00 | 0.00 | 0.00 | 33 | 1007.9 |
| 20260504184022 | 20 | 293 | 12.9 | 40.2 | 0.00 | 0.00 | 0.00 | 33 | 1008.0 |
| 20260504183519 | 20 | 251 | 14.5 | 40.2 | 0.00 | 0.00 | 0.00 | 33 | 1008.1 |
| 20260504183049 | 20 | 321 | 9.7 | 27.4 | 0.00 | 0.00 | 0.00 | 33 | 1008.0 |
| 20260504182518 | 20 | 157 | 8.0 | 27.4 | 0.00 | 0.00 | 0.00 | 33 | 1008.1 |
| 20260504182018 | 21 | 243 | 11.3 | 29.0 | 0.00 | 0.00 | 0.00 | 32 | 1008.3 |
| 20260504181539 | 21 | 212 | 11.3 | 29.0 | 0.00 | 0.00 | 0.00 | 33 | 1008.2 |
| 20260504181018 | 20 | 224 | 12.9 | 29.0 | 0.00 | 0.00 | 0.00 | 33 | 1008.2 |
| 20260504180518 | 20 | 165 | 8.0 | 32.2 | 0.00 | 0.00 | 0.00 | 34 | 1008.2 |
| 20260504180058 | 20 | 227 | 16.1 | 32.2 | 0.00 | 0.00 | 0.00 | 33 | 1008.5 |
| 20260504175521 | 20 | 227 | 12.9 | 38.6 | 0.00 | 0.00 | 0.00 | 32 | 1008.4 |
| 20260504175022 | 20 | 286 | 8.0 | 38.6 | 0.00 | 0.00 | 0.00 | 32 | 1008.4 |
| 20260504174537 | 20 | 257 | 6.4 | 35.4 | 0.00 | 0.00 | 0.00 | 33 | 1008.3 |
| 20260504174018 | 20 | 256 | 11.3 | 35.4 | 0.00 | 0.00 | 0.00 | 34 | 1008.4 |
| 20260504173517 | 20 | 189 | 9.7 | 24.1 | 0.00 | 0.00 | 0.00 | 32 | 1008.2 |
| 20260504173032 | 21 | 250 | 6.4 | 24.1 | 0.00 | 0.00 | 0.00 | 32 | 1008.1 |
| 20260504172520 | 20 | 158 | 8.0 | 41.8 | 0.00 | 0.00 | 0.00 | 33 | 1008.1 |
| 20260504172021 | 20 | 356 | 9.7 | 41.8 | 0.00 | 0.00 | 0.00 | 32 | 1008.2 |
| 20260504171541 | 20 | 112 | 9.7 | 30.6 | 0.00 | 0.00 | 0.00 | 34 | 1008.3 |
| 20260504171018 | 20 | 323 | 16.1 | 30.6 | 0.00 | 0.00 | 0.00 | 33 | 1008.2 |
| 20260504170520 | 20 | 349 | 6.4 | 29.0 | 0.00 | 0.00 | 0.00 | 34 | 1008.2 |
| 20260504151018 | 18 | 181 | 11.3 | 30.6 | 0.00 | 0.00 | 0.00 | 38 | 1009.7 |
| 20260504150518 | 18 | 172 | 11.3 | 30.6 | 0.00 | 0.00 | 0.00 | 38 | 1009.8 |
| 20260504141017 | 17 | 205 | 6.4 | 22.5 | 0.00 | 0.00 | 0.00 | 42 | 1010.4 |
| 20260504140517 | 17 | 236 | 9.7 | 20.9 | 0.00 | 0.00 | 0.00 | 42 | 1010.4 |
| 20260504130521 | 15 | 188 | 3.2 | 16.1 | 0.00 | 0.00 | 0.00 | 49 | 1010.9 |
| 20260504110518 | 6 | 257 | 0.0 | 6.4 | 0.00 | 0.00 | 0.00 | 67 | 1011.2 |
| 20260504100517 | 6 | 217 | 0.0 | 4.8 | 0.00 | 0.00 | 0.00 | 66 | 1011.0 |
| 20260504081538 | 6 | 198 | 0.0 | 0.0 | 0.00 | 0.00 | 0.00 | 66 | 1010.7 |
| 20260504081020 | 6 | 0 | 0.0 | 1.6 | 0.00 | 0.00 | 0.00 | 67 | 1010.7 |
| 20260504080517 | 6 | 198 | 0.0 | 1.6 | 0.00 | 0.00 | 0.00 | 67 | 1010.7 |